Weather History for FVHA - January, 2012

Change the Weather History Date:

Friday, January 13, 2012

  Actual Average Record
Temperature  
Mean Temperature 70 °F -  
Max Temperature 77 °F 79 °F 86 °F (2007)
Min Temperature 62 °F 60 °F 57 °F (2014)
Cooling Degree Days 4    
Growing Degree Days 20 (Base 50)    
Moisture  
Dew Point 62 °F    
Average Humidity 82    
Maximum Humidity 100    
Minimum Humidity 57    
Precipitation  
Precipitation 0.00 in 0.22 in - ()
Sea Level Pressure  
Sea Level Pressure 30.11 in    
Wind  
Wind Speed 7 mph ()    
Max Wind Speed 14 mph    
Max Gust Speed 18 mph    
Visibility 7.5 miles    
Events Rain , Thunderstorm    
Averages and records for this station are not official NWS values.
T = Trace of Precipitation, MM = Missing Value Source: Averaged Metar Reports

Daily Weather History Graph

Daily Weather History Graph

Search for Another Location

Airport or City:

Trip Planner

Search our weather history database for the weather conditions in past years. The results will help you decide how hot, cold, wet, or windy it might be!

Date:

Astronomy

Jan. 13, 2012 Rise Set
Actual Time 5:30 AM CAT 6:37 PM CAT
Civil Twilight 5:06 AM CAT 7:00 PM CAT
Nautical Twilight 4:38 AM CAT 7:28 PM CAT
Astronomical Twilight 4:09 AM CAT 7:57 PM CAT
Moon 9:38 PM CAT (1/13) 9:10 AM CAT (1/13)
Length of Visible Light 13h 54m
Length of Day
13h 06m
Waning Gibbous, 81% of the Moon is Illuminated
Jan 13
Waning Gibbous
Jan 16
Last Quarter
Jan 23
New
Jan 31
First Quarter
Feb 7
Full

Hourly Weather History & Observations

Time (CAT) Temp. Dew Point Humidity Pressure Visibility Wind Dir Wind Speed Gust Speed Precip Events Conditions
12:00 AM 66.2 °F 60.8 °F 83% 30.15 in - ENE 10.4 mph - N/A   Clear
1:00 AM 66.2 °F 62.6 °F 88% 30.12 in - NE 6.9 mph - N/A   Clear
2:00 AM 66.2 °F 64.4 °F 94% 30.12 in - WSW 5.8 mph - N/A   Clear
3:00 AM 64.4 °F 64.4 °F 100% 30.12 in - Calm Calm - N/A   Clear
4:00 AM 64.4 °F 62.6 °F 94% 30.12 in - South 1.2 mph - N/A   Clear
5:00 AM 64.4 °F 62.6 °F 94% 30.12 in - ESE 2.3 mph - N/A   Clear
6:00 AM 64.4 °F 60.8 °F 88% 30.12 in - ENE 5.8 mph - N/A   Clear
7:00 AM 66.2 °F 60.8 °F 83% 30.15 in - NE 6.9 mph - N/A   Clear
8:00 AM 68 °F 61 °F 73%  in 19 mi NE 13.8 mph - -   Mostly Cloudy
8:00 AM 68.0 °F 60.8 °F 78% 30.15 in - NE 13.8 mph 18.4 mph N/A   Clear
9:00 AM 71.6 °F 62.6 °F 73% 30.15 in 6.2 mi NNE 10.4 mph - N/A   Partly Cloudy
10:00 AM 73.4 °F 62.6 °F 69% 30.15 in 6.2 mi NE 10.4 mph - N/A   Mostly Cloudy
12:00 PM 77.0 °F 60.8 °F 57% 30.12 in 6.2 mi North 12.7 mph - N/A   Mostly Cloudy
1:00 PM 77.0 °F 60.8 °F 57% 30.09 in 6.2 mi NNE 10.4 mph - N/A   Scattered Clouds
2:00 PM 74 °F 64 °F 63%  in 19 mi NNW 6.9 mph - -   Mostly Cloudy
2:00 PM 75.2 °F 64.4 °F 69% 30.06 in 6.2 mi NNW 6.9 mph - N/A   Mostly Cloudy
4:06 PM 73.4 °F 64.4 °F 73% 30.04 in 5.6 mi NNW 8.1 mph - N/A   Mostly Cloudy
5:00 PM 73.4 °F 60.8 °F 65% 30.04 in 6.2 mi Variable 2.3 mph - N/A Thunderstorm Thunderstorm
6:00 PM 68.0 °F 64.4 °F 88% 30.06 in 6.2 mi SE 4.6 mph - N/A Thunderstorm Thunderstorm
7:00 PM 62.6 °F 60.8 °F 94% 30.06 in 6.2 mi West 6.9 mph - N/A Rain , Thunderstorm Thunderstorms and Rain
8:00 PM 64 °F 62 °F 90%  in 9 mi SE 12.7 mph - -   Overcast
8:00 PM 64.4 °F 62.6 °F 94% 30.12 in 5.0 mi SE 12.7 mph - N/A Rain , Thunderstorm Thunderstorms and Rain
9:00 PM 62.6 °F 60.8 °F 94% 30.15 in 3.1 mi SE 8.1 mph - N/A Rain , Thunderstorm Thunderstorms and Rain
10:00 PM 62.6 °F 60.8 °F 94% 30.15 in 5.0 mi South 3.5 mph - N/A Rain , Thunderstorm Light Thunderstorms and Rain
11:00 PM 62.6 °F 62.6 °F 100% 30.15 in 5.0 mi SSE 3.5 mph - N/A Rain , Thunderstorm Light Thunderstorms and Rain